Regional Weather Roundup
Issued by NWS Wilmington, NC

Home | Current Version | Previous Version | Text Only | Print | Product List | Glossary On
Versions: 1 2 3 4 5 6 7 8 9 10 11 12 13 14 15 16 17 18 19 20 21 22 23 24 25 26 27
000
ASUS42 KILM 292313
RWRILM
RWRILM
REGIONAL HOURLY WEATHER ROUNDUP
NATIONAL WEATHER SERVICE WILMINGTON NC
700 PM EDT SAT APR 29 2017

NOTE: "FAIR" INDICATES FEW OR NO CLOUDS BELOW 12,000 FEET WITH NO
SIGNIFICANT WEATHER AND/OR OBSTRUCTIONS TO VISIBILITY.

...............WFO WILMINGTON COUNTY WARNING AREA...............

......COASTAL NC AND SC COUNTIES......

CITY           SKY/WX    TMP DP  RH WIND       PRES   REMARKS
WILMINGTON     SUNNY     79  69  71 S14G22    30.18S
N MYRTLE BEACH SUNNY     76  72  87 S12       30.19R
MYRTLE BEACH   SUNNY     77  72  83 S17       30.19R

......INLAND NC AND SC COUNTIES.......

CITY           SKY/WX    TMP DP  RH WIND       PRES   REMARKS
LUMBERTON      SUNNY     82  73  74 SE9       30.13S
ELIZABETHTOWN  SUNNY     82  71  68 S9        30.16S
WHITEVILLE     SUNNY     80  70  72 S10       30.17S
FLORENCE       PTSUNNY   85  68  56 SW8       30.15R
DARLINGTON     PTSUNNY   85  69  58 S9        30.14S
KINGSTREE      FAIR      81  68  65 SE8G17    30.16S
HARTSVILLE     FAIR      81  66  61 S6        30.14S
BENNETTSVILLE  FAIR      84  70  61 S3        30.13S
CONWAY         FAIR      79  70  73 S8        30.18R
GEORGETOWN     FAIR      77  70  78 SW9       30.19F
MARION         FAIR      81  68  65 S9        30.15S

....................REST OF NORTH CAROLINA......................

.........EASTERN NC.........

CITY           SKY/WX    TMP DP  RH WIND       PRES   REMARKS
CAPE HATTERAS  CLEAR     77  71  82 SW13      30.19S HAZE
JACKSONVILLE   CLEAR     80  72  76 S9        30.17R
MOREHEAD CITY  CLEAR     76  73  91 SW13      30.20R
KENANSVILLE    SUNNY     82  70  65 S3        30.15S
NEW BERN       CLEAR     80  71  74 S10G23    30.18R
ELIZABETH CITY CLEAR     83  73  72 S12       30.12S

.........CENTRAL NC.........

CITY           SKY/WX    TMP DP  RH WIND       PRES   REMARKS
RALEIGH DURHAM PTSUNNY   85  68  56 S13       30.13S
ROCKY MOUNT    SUNNY     84  71  65 S8        30.13S
ROANOKE RAPIDS NOT AVBL
FAYETTEVILLE   MOSUNNY   88  69  53 S13       30.13S HX  92
HOFFMAN        PTSUNNY   86  65  50 SW10      30.14R

.........WESTERN NC.........

CITY           SKY/WX    TMP DP  RH WIND       PRES   REMARKS
CHARLOTTE      PTSUNNY   81  70  69 SW6       30.13F
GREENSBORO     PTSUNNY   82  71  69 S14       30.13S
HICKORY        NOT AVBL
BOONE          NOT AVBL
ASHEVILLE      NOT AVBL

.....................REST OF SOUTH CAROLINA.....................

.........EASTERN SC.........

CITY           SKY/WX    TMP DP  RH WIND       PRES   REMARKS
CHARLESTON     MOSUNNY   78  68  71 S8        30.18S
BEAUFORT MCAS  PTSUNNY   77  71  82 S8        30.17S
HILTON HEAD    NOT AVBL

.........CENTRAL SC.........

CITY           SKY/WX    TMP DP  RH WIND       PRES   REMARKS
COLUMBIA       PTSUNNY   86  67  52 S10       30.11F
ORANGEBURG     CLOUDY    82  68  62 S12       30.14S
SUMTER SHAW    CLOUDY    84  68  58 S9        30.12S

.........WESTERN SC.........

CITY           SKY/WX    TMP DP  RH WIND       PRES   REMARKS
GREENVILLE     NOT AVBL
ROCK HILL      MOSUNNY   80  69  69 SW6       30.14F
ANDERSON       MOSUNNY   79  71  76 SE5       30.12R
CLEMSON        NOT AVBL
GREENWOOD      MOSUNNY   81  70  69 SE5       30.13F


...................COASTAL AND OFFSHORE REPORTS..................

................LOCAL PIERS AND NC RESERVE................


STATION/POSITION TIME  SKY/WX   TEMP    WIND        PRES    VSBY
                                AIR SEA DIR/SP/G
                 (UTC)          (F)     (DEG/KT/KT) (MB)    (MI)
JOHNY MRCER PIER 2248            74 73  190/ 15/ 17 1021.3R
NC RESRV MASNBRO 2145            79     220/  7     1023.0
OCEAN CREST PIER NOT AVBL
SPRINGMAID  PIER 2248                               1021.6R


................COASTAL AND OFFSHORE BUOYS................


STATION/POSITION TIME  SKY/WX   TEMP    WIND        PRES    VSBY
                                AIR SEA DIR/SP/G
                 (UTC)          (F)     (DEG/KT/KT) (MB)    (MI)
DIMNDSHOAL 41025 2250            77 76  220/ 16/ 17 1022.5R
WVE H/P(F/S)=  4/ 7 SWL H/P/D(F/S/D)=  2/150/ 7

CAPE LOOKOUT     2300            75     200/ 10/ 12 1022.4R
ONSLOW BAY 41036 NOT AVBL
ONSLOW BAY 41064 2208            74     210/ 10/ 14 1022.6
ONSLOW BAY 41159 2243               73                N/A
WVE H/P(F/S)=  3/ 5

MASNBO INL 41110 2229               72                N/A
WVE H/P(F/S)=  3/ 6

WILM HARBR 41108 2247               74                N/A
WVE H/P(F/S)=  3/ 6

27SE WRITB 41037 2208            75 74  200/ 12/ 16 1021.6S
FRYING PAN 41013 2300            76 74  190/  8/ 10 1022.8
SUNST NRSH 41024 2208            75 73  200/ 10/ 14 1022.3S
CAPRS NRSH 41029 2208            78 76  190/ 10/ 14 1022.2F
EDISTO     41004 2250            77 76  170/  8/ 10 1022.1F
WVE H/P(F/S)=  3/ 6 SWL H/P/D(F/S/D)=  3/150/ 6



..........OFFSHORE BUOYS BEYOND 100 NM OFFSHORE...........
.....IN A TRIANGLE---HAT TO BERMUDA TO BAHAMAS TO HAT.....


STATION/POSITION TIME  SKY/WX   TEMP    WIND        PRES    VSBY
                                AIR SEA DIR/SP/G
                 (UTC)          (F)     (DEG/KT/KT) (MB)    (MI)
150E HAT   41001 2300            74 74  220/ 12/ 16 1023.8
W BERMUDA  41048 2300            72 73  200/  6/  8 1025.5
ATLANTIC S 41049 2250            73 73   50/ 16/ 17 1025.2R
WVE H/P(F/S)=  4/ 8 SWL H/P/D(F/S/D)=  3/ 70/ 8

E BAHAMAS  41046 2300            76 77   70/ 19/ 23 1021.5
NE BAHAMAS 41047 2300            75 77  100/ 14/ 17 1024.3
120E CANVRL41010 2300            78 78  120/ 16/ 19 1021.5

END




USA.gov is the U.S. government's official web portal to all federal, state and local government web resources and services.